Location: Unspecified
(0.0000°N, 0.0000°E)
Time: 06:58:21
(UTC+00:00)

STARLINK-2737 - Pass Details

Date: 12 June 2021
Orbit: 349 x 350 km, 53.0° (Epoch: 20 June)

Event Time Altitude Azimuth Distance (km) Brightness Sun altitude
Exits shadow 04:33:50 - 152° (SSE) 1,418 5.8 -19.7°
Reaches altitude 10° 04:34:39 10° 137° (SE) 1,302 5.7 -19.5°
Maximum altitude 04:35:16 11° 125° (SE) 1,273 5.9 -19.4°
Drops below altitude 10° 04:35:54 10° 112° (ESE) 1,301 6.1 -19.2°
Sets 04:39:18 0° 69° (ENE) 2,138 8.4 -18.5°
